RH
83 86 87 82 81 81 80 82 89 90 82 80 87 91 93 93 89 84 83 87 89 90 88 86 87 88 88 86 86 87 87 88 89 89 86 86 89 87
86 85 83 81 83 86 88 85 86 87 91 81 92 96 96 96 95 92 89 92 91 90 89 90 92 92 92 92 91 92 91 92 91 87 84 88 88 88
88 88 86 82 86 85 87 88 88 87 91 79 74 90 96 94 95 96 92 91 90 95 92 93 95 95 94 94 94 92 93 91 91 91 88 87 89 90
88 89 87 79 87 85 87 87 87 85 89 89 78 85 94 96 95 97 96 95 95 94 97 94 96 96 95 94 94 94 94 93 92 92 91 91 90 93
90 88 84 84 86 87 87 90 88 85 88 92 89 86 89 98 98 96 97 95 93 95 94 96 96 96 97 96 95 95 97 98 96 96 96 97 97 95
87 89 88 87 88 90 91 90 89 93 97 96 93 93 98 97 98 97 99 96 96 96 97 98 98 99 98 97 97 98 98 98 97 97 98 99 99 98
90 86 89 91 94 91 86 88 93 95 95 97 98 98 99 100 99 96 95 96 99 99 99 99 99 99 99 99 99 100 99 99 98 98 99 99 98 98
95 92 92 96 96 96 93 90 90 93 96 98 98 98 95 96 97 94 96 100 99 99 99 100 99 99 99 99 98 99 99 99 99 99 98 98 97 96
95 95 93 91 94 96 96 97 98 98 96 93 96 95 96 95 95 98 99 99 96 99 98 99 99 99 99 99 97 97 98 98 98 98 98 97 98 98
94 96 96 95 94 96 98 99 98 98 98 99 99 98 99 97 98 96 96 99 99 99 98 100 99 100 99 99 97 96 97 97 98 98 98 98 98 96
92 94 95 96 91 92 97 98 98 98 93 94 95 95 95 95 97 99 100 100 100 100 99 98 100 99 99 100 99 97 97 96 97 97 97 96 95 93
92 93 92 93 90 88 93 95 98 98 96 94 94 93 93 94 94 97 98 100 100 100 99 99 100 99 100 100 99 100 99 95 95 94 94 94 92 95
97 95 94 91 91 90 91 95 97 94 94 94 95 94 93 94 97 96 96 100 100 100 99 100 100 100 100 100 99 99 98 97 96 95 87 86 87 91
96 92 87 84 84 87 90 89 88 89 91 94 95 97 98 98 98 98 98 98 97 99 98 99 100 100 100 100 100 100 98 97 99 100 98 88 84 82
90 81 74 75 77 80 79 81 83 91 95 95 98 98 99 99 96 97 97 96 98 96 95 100 100 100 100 100 100 100 98 96 98 99 98 98 99 97
83 85 75 74 74 79 87 90 93 95 96 93 94 100 98 98 97 99 98 97 94 98 97 97 96 99 100 100 99 98 98 96 96 95 98 94 89 90
86 83 81 87 91 92 93 94 94 95 96 97 98 98 98 96 96 98 98 96 95 96 97 99 97 94 97 96 95 94 98 92 90 97 96 98 93 88
74 79 85 88 88 92 93 96 96 93 97 96 96 97 98 96 97 97 97 96 96 97 97 98 98 95 94 92 87 96 98 96 92 87 90 95 96 89
78 87 88 88 90 92 96 97 98 98 96 97 98 98 98 97 97 97 96 97 96 97 98 98 98 98 98 98 95 86 92 96 97 97 97 98 94 92
88 92 94 93 94 95 95 96 97 96 97 97 97 97 98 98 97 97 97 97 97 97 96 97 98 98 99 99 99 94 77 95 97 95 98 98 93 83
90 92 92 93 95 96 97 97 95 95 87 93 97 96 97 97 97 96 96 80 86 97 98 98 97 71 98 96 96 95 91 72 80 96 97 100 94 95
87 90 93 94 95 96 96 96 97 97 98 98 98 98 98 97 97 97 97 97 98 97 97 97 97 96 97 97 98 97 92 91 78 73 71 80 98 97
86 89 94 95 96 96 97 97 96 97 97 98 98 98 97 97 97 97 96 97 97 97 97 97 97 97 97 97 92 98 96 90 90 84 82 73 72 73
Wind_Speed
11 11 10 9 9 8 8 9 11 14 13 8 8 6 5 5 9 10 11 14 18 21 22 21 19 18 19 22 24 23 20 21 19 18 19 16 17 16
10 14 13 10 9 8 9 10 10 13 16 6 6 5 6 5 7 8 9 13 19 19 20 15 16 16 15 14 14 15 17 17 18 19 20 19 17 16
13 15 14 12 9 9 8 9 10 11 14 11 7 6 9 11 7 7 9 10 10 16 17 15 14 14 13 14 13 14 15 17 17 19 22 22 19 18
13 13 13 10 12 11 9 11 11 11 11 16 10 7 9 9 9 9 8 6 7 8 14 17 15 16 17 17 16 16 16 16 17 20 21 20 18 16
13 14 13 12 12 10 10 10 10 9 11 10 10 6 6 3 6 6 7 9 7 11 15 16 19 18 18 18 18 16 15 17 18 20 18 16 15 13
13 15 13 11 11 10 9 10 10 8 5 9 8 7 4 3 3 5 6 7 7 7 9 9 10 15 19 20 19 17 18 20 21 23 20 15 13 12
12 13 12 9 11 13 9 9 8 7 5 5 5 5 3 2 5 4 7 5 5 3 3 3 2 3 4 11 14 17 20 21 22 22 18 15 12 10
10 9 7 7 8 13 15 13 10 8 7 4 3 4 7 6 4 6 6 3 3 4 5 3 2 1 2 2 2 6 14 15 15 14 15 14 13 11
7 8 7 4 5 5 5 6 2 5 7 5 6 7 5 5 4 5 6 5 5 2 3 1 2 3 2 3 7 8 9 11 10 11 12 12 12 14
7 7 7 6 6 5 2 5 6 7 5 3 4 3 3 4 4 4 6 4 4 3 2 3 1 3 2 4 8 6 6 7 10 11 11 12 12 12
6 8 7 7 9 5 5 7 7 7 12 16 15 14 14 12 1 4 4 4 2 1 3 3 1 3 2 4 2 5 6 7 8 10 11 12 11 9
4 7 15 9 9 9 7 6 7 5 6 7 9 11 13 12 18 8 3 4 3 3 3 3 2 4 1 3 3 2 3 9 9 8 8 9 8 4
2 3 5 14 15 15 14 7 5 5 8 6 7 6 8 10 8 9 9 5 4 4 5 3 2 3 2 3 1 3 4 5 5 5 7 5 3 2
2 3 5 12 14 15 11 13 13 9 5 6 6 7 6 7 8 7 9 10 10 8 6 6 3 2 1 3 2 2 4 4 3 2 3 4 5 4
3 4 8 10 13 11 13 13 10 5 5 7 6 6 4 4 5 2 5 9 12 11 8 7 5 2 4 3 3 2 3 4 4 3 3 3 2 2
8 3 5 8 10 10 8 8 5 5 5 6 5 2 2 3 3 3 3 3 8 7 8 8 6 3 2 3 3 2 2 1 3 3 2 3 3 2
6 2 2 2 3 4 4 5 4 4 4 3 4 3 2 2 4 2 3 4 6 3 4 3 3 4 4 4 2 1 0 1 2 1 1 2 2 3
3 3 2 2 4 3 4 4 4 5 3 4 4 3 2 3 3 4 4 4 4 3 2 2 3 4 4 3 2 2 2 2 3 3 2 2 2 3
3 3 4 4 3 4 4 3 3 3 3 4 3 2 3 3 5 3 3 3 4 3 3 2 4 4 4 2 3 5 3 2 1 3 2 2 4 4
3 4 4 4 3 4 4 4 3 3 3 3 3 3 3 3 3 3 3 3 3 3 4 4 4 3 4 2 1 3 9 0 1 3 3 3 5 12
5 4 4 4 4 4 4 4 4 3 4 3 2 3 3 3 3 3 3 5 5 2 3 2 2 5 1 2 2 3 3 9 6 3 3 3 4 3
5 6 5 5 5 5 4 4 4 3 2 3 2 3 3 3 3 3 3 3 2 2 2 2 3 3 3 3 3 4 4 3 5 10 13 11 3 4
7 6 6 5 4 4 4 4 4 3 4 3 3 3 3 2 2 3 3 3 2 1 0 2 3 2 1 2 3 3 4 6 4 6 6 12 14 16
Wind_Direction
251 247 243 244 246 247 251 253 254 260 251 239 234 211 204 189 208 207 213 212 210 211 212 216 224 232 230 227 227 229 226 234 231 218 222 217 214 212
253 250 244 241 238 236 237 242 245 255 263 229 236 212 199 207 220 208 213 209 216 217 218 227 232 238 245 243 237 234 238 236 238 225 209 200 196 206
251 249 244 242 238 238 236 237 242 244 256 253 242 215 202 205 211 210 224 221 230 227 230 225 230 233 238 238 240 238 230 238 236 231 204 198 194 203
254 253 254 252 246 242 239 241 241 242 246 253 238 228 211 203 202 202 211 217 220 229 230 235 232 230 229 230 228 226 233 231 227 222 206 195 195 199
267 247 244 241 244 239 237 239 243 242 243 244 245 235 224 174 200 215 201 213 216 221 221 226 235 240 247 245 235 226 224 229 220 204 191 182 186 197
279 275 248 244 245 240 234 237 239 236 249 248 235 244 215 211 202 203 211 209 214 215 223 229 225 228 233 237 236 233 230 232 228 205 185 175 179 185
272 265 265 247 249 243 235 237 221 224 233 239 234 241 202 194 199 198 228 220 214 164 193 183 220 261 258 249 248 236 230 229 218 201 169 160 165 177
322 318 299 271 276 253 236 222 211 216 225 224 223 226 237 220 197 211 222 168 235 190 185 201 196 146 28 360 353 206 216 198 153 142 139 146 161 169
329 319 318 329 338 327 307 251 279 291 244 233 240 244 245 218 205 199 190 190 222 169 110 131 63 94 34 33 46 73 84 100 116 130 133 145 152 150
342 338 338 341 337 325 282 93 68 39 347 308 261 293 265 232 209 217 204 125 77 70 46 113 106 78 34 54 52 65 105 123 124 120 123 133 139 140
357 356 357 353 7 43 96 105 90 63 55 62 61 51 50 48 234 142 138 136 125 111 20 106 124 83 302 36 22 66 88 89 93 104 117 120 124 127
7 12 22 37 45 71 85 88 80 63 62 48 40 26 30 36 41 43 75 118 124 80 359 105 99 110 32 52 6 48 67 80 69 90 108 118 127 123
72 24 35 51 59 66 67 62 77 67 62 64 61 41 32 32 32 37 40 68 88 82 339 108 114 80 69 115 1 29 60 42 47 38 49 60 76 125
138 105 82 72 72 71 71 76 75 72 63 60 57 49 39 34 29 35 46 60 64 77 27 48 85 91 120 83 94 15 32 43 51 40 39 15 24 345
126 132 108 92 85 72 76 74 66 59 72 74 68 56 42 22 19 18 76 78 67 51 41 48 66 74 73 90 106 32 59 353 26 47 43 37 20 7
141 129 115 96 87 88 69 58 63 74 87 100 98 68 20 26 49 2 60 58 74 62 46 39 39 77 100 84 106 115 97 152 3 13 13 2 335 322
146 121 91 78 72 70 66 67 63 57 78 80 84 77 61 53 54 7 39 45 81 78 35 5 21 64 58 95 97 71 339 350 349 357 5 288 262 285
144 143 130 125 122 118 103 87 64 85 71 75 65 65 66 66 56 21 45 65 84 67 54 353 7 26 23 30 152 143 27 41 7 347 296 260 261 254
138 153 141 137 131 117 109 97 94 70 73 71 78 63 53 43 64 33 35 58 48 52 18 25 47 79 62 14 301 146 72 291 276 306 255 238 271 278
133 141 138 131 126 116 116 121 103 81 81 84 76 72 61 100 75 61 50 64 51 30 26 28 50 75 120 201 264 288 327 343 320 302 285 264 251 275
134 128 135 132 129 123 118 112 114 109 124 106 79 75 65 81 68 60 54 84 83 58 53 19 253 40 198 40 4 304 289 310 301 231 244 257 269 249
137 136 137 134 135 134 128 121 117 119 116 101 99 99 88 93 94 81 76 79 67 124 199 264 333 33 57 125 240 272 293 274 293 299 298 277 193 287
144 139 136 131 126 129 127 131 125 117 112 113 108 91 78 77 73 81 80 76 81 19 281 318 333 32 228 188 271 254 278 294 300 316 305 286 284 290